Overview Statistics Trail Chart Weather Telemetry Raw packets
 

This is the latest recevied weather packets stored in our database for station/object HP1MRA-15. If no packets are shown the sender has not sent any weather packets the latest 10 day(s).

<< 89 90 91 92 93 94 95 >>
Time Temp. Humidity Pressure Rain* Wind** Luminosity Snow
1788076082 25.56° C 79% 1001 hPa 0 mm - - -
1788075781 25.56° C 78% 1001.2 hPa 0 mm - - -
1788075480 25.56° C 79% 1001.3 hPa 0 mm - - -
1788075181 25.56° C 79% 1001.6 hPa 0 mm - - -
1788074881 25.56° C 79% 1001.9 hPa 0 mm - - -
1788074582 25.56° C 79% 1002.1 hPa 0 mm - - -
1788074580 25.56° C 80% 1002.1 hPa 0 mm - - -
1788074281 25.56° C 81% 1002.1 hPa 0 mm - - -
1788073981 25.56° C 81% 1002.2 hPa 0 mm - - -
1788073680 25.56° C 78% 1002.1 hPa 0 mm - - -
1788073381 25.56° C 78% 1002.1 hPa 0 mm - - -
1788073080 25.56° C 79% 1002.2 hPa 0 mm - - -
1788072779 25.56° C 78% 1002.3 hPa 0 mm - - -
1788072481 25.56° C 78% 1002.4 hPa 0 mm - - -
1788072181 25.56° C 78% 1002.6 hPa 0 mm - - -
1788071881 26.11° C 79% 1002.7 hPa 0 mm - - -
1788071879 26.11° C 79% 1002.8 hPa 0 mm - - -
1788071580 26.11° C 78% 1002.9 hPa 0 mm - - -
1788071281 26.11° C 80% 1002.8 hPa 0 mm - - -
1788070980 26.11° C 79% 1002.8 hPa 0 mm - - -
1788070979 26.11° C 79% 1002.7 hPa 0 mm - - -
1788070681 26.11° C 77% 1002.7 hPa 0 mm - - -
1788070381 26.11° C 78% 1002.7 hPa 0 mm - - -
1788070081 26.11° C 77% 1002.9 hPa 0 mm - - -
1788070079 26.11° C 77% 1002.9 hPa 0 mm - - -

* Rain latest hour (hover to see other rain measurements)
** Current wind speed in m/s (hover to see current wind gust speed)